Location: Gloden
(48.4833°N, 15.3167°E)
Time: 07:21:25
(UTC+00:00)

TIGRISAT - Visible Passes

Search period start: 11 May 2021 00:00
Search period end: 21 May 2021 00:00
Orbit: 604 x 689 km, 97.7° (Epoch: 10 May)

Date Brightness Start Highest point End Pass type
(mag) Time Alt. Az. Time Alt. Az. Time Alt. Az.
11 May ? 20:00:52 10° NNW 20:03:57 18° WNW 20:07:04 10° WSW visible
12 May ? 20:27:40 10° NW 20:29:07 11° NW 20:30:36 10° WNW visible
13 May ? 19:14:20 10° N 19:18:38 43° WNW 19:23:00 10° SW visible
14 May ? 19:40:10 10° N 19:43:57 26° WNW 19:47:49 10° WSW visible
15 May ? 20:06:20 10° NNW 20:09:13 17° WNW 20:12:07 10° W visible
16 May ? 20:33:37 10° NW 20:34:21 10° NW 20:35:06 10° WNW visible
17 May ? 19:19:40 10° N 19:23:56 39° WNW 19:28:15 10° SW visible
18 May ? 19:45:34 10° N 19:49:15 24° WNW 19:52:57 10° WSW visible
19 May ? 20:11:50 10° NNW 20:14:28 15° WNW 20:17:07 10° W visible
